Content
SEND FEEDBACK

Daily
Averages
Monthly
Summary
Latvia

INDULI, LATVIA


Home > Europe > Latvia
Elevation: 33 feet     Latitude: 56 42N     Longitude: 023 42E

WEATHER
 
SELECT A DAY
Number of Records: 303,811;   Date Range: 7/1/96 - 9/21/14
 
SHARE

PRINT THIS DATA

[ ← Previous Day ]
WEATHER ALMANAC - JANUARY 23, 2013
[ Next Day → ]
[ °C ]   °F
Weather ElementAverageHighLow
Temperature12.3 °F23 °F (3:50 pm)-1 °F (2:00 am)
Dewpoint11.6 °F23 °F (3:50 pm)-3 °F (2:00 am)
Humidity96.7 %100 % (5:50 am)89 % (2:00 am)
Barometer29.90 in29.98 in (12:50 am)29.86 in (7:20 pm)
Wind Speed3.9 mph6.7 mph (2:00 am)
Weather ElementAverage
Visibility5.4 mi
Wind DirectionSSW (191.8 °)

Weather ElementTotal
Precipitation---
Heating Degree Days54 (Base 65)
Averaged from 51 records on January 23, 2013
WEATHER CONDITIONS BREAKOUT
WIND DIRECTION BREAKOUT
WEATHER BY HOUR - JANUARY 23, 2013
[ °C ]   °F
Local TimeTemperatureDewpointHumidityBarometerVisibilityWind DirectionWind SpeedGust SpeedPrecipitationEventsConditions
12:50 AM3.2 °F1.4 °F92 %29.98 in6.2 miSouth (170°)5.8 mphMostly Cloudy
1:20 AM1.4 °F-0.4 °F92 %29.95 in6.2 miSouth (180°)5.8 mphScattered Clouds
1:50 AM-0.4 °F-2.2 °F92 %29.95 inSouth (190°)5.8 mphClear
2:00 AM-1.0 °F-3.0 °F89 %29.98 in6.0 miSouth (180°)6.7 mphClear
2:20 AM-0.4 °F-2.2 °F92 %29.95 inSouth (190°)5.8 mphClear
2:50 AM-0.4 °F-2.2 °F92 %29.95 inSSW (210°)4.6 mphClear
3:20 AM1.4 °F-0.4 °F92 %29.95 inSSW (210°)4.6 mphClear
3:50 AM1.4 °F-0.4 °F92 %29.95 inSSW (200°)4.6 mphClear
4:20 AM1.4 °F-0.4 °F92 %29.92 in6.2 miSouth (190°)5.8 mphScattered Clouds
4:50 AM3.2 °F1.4 °F92 %29.92 in5.6 miSSW (210°)5.8 mphScattered Clouds
5:20 AM5.0 °F3.2 °F92 %29.92 in4.3 miSSW (210°)4.6 mphScattered Clouds
5:50 AM3.2 °F3.2 °F100 %29.92 in5.6 miSSW (200°)3.5 mphScattered Clouds
6:20 AM5.0 °F3.2 °F92 %29.92 in5.0 miSouth (190°)3.5 mphScattered Clouds
6:50 AM3.2 °F1.4 °F92 %29.92 in6.2 miSouth (180°)4.6 mphScattered Clouds
7:20 AM1.4 °F-0.4 °F92 %29.89 in5.6 miSouth (190°)4.6 mphPartly Cloudy
7:50 AM1.4 °F-0.4 °F92 %29.89 in5.6 miSouth (190°)3.5 mph
8:00 AM2.0 °F1.0 °F93 %29.92 in6.0 miSouth (180°)2.2 mphClear
8:20 AM-0.4 °F-2.2 °F92 %29.89 in3.7 miSSW (200°)3.5 mph
8:50 AM-0.4 °F-0.4 °F100 %29.89 in4.3 miSSW (210°)3.5 mph
9:20 AM1.4 °F1.4 °F100 %29.89 in4.3 miSSW (210°)3.5 mph
9:50 AM5.0 °F3.2 °F92 %29.92 in3.7 miSouth (180°)3.5 mphPartly Cloudy
10:20 AM5.0 °F5.0 °F100 %29.92 in3.7 miSouth (180°)3.5 mphPartly Cloudy
10:50 AM6.8 °F6.8 °F100 %29.92 in4.3 miSouth (170°)3.5 mphMostly Cloudy
11:20 AM10.4 °F8.6 °F92 %29.92 in3.7 miSouth (180°)3.5 mphMostly Cloudy
11:50 AM12.2 °F10.4 °F92 %29.89 in3.7 miSouth (190°)2.3 mphMostly Cloudy
12:20 PM14.0 °F14.0 °F100 %29.89 in3.7 miSouth (190°)3.5 mphMostly Cloudy
12:50 PM17.6 °F15.8 °F93 %29.89 in4.3 miSouth (170°)2.3 mphMostly Cloudy
1:20 PM19.4 °F19.4 °F100 %29.89 in5.0 miSSE (160°)2.3 mphMostly Cloudy
1:50 PM19.4 °F19.4 °F100 %29.89 in5.6 miSouth (170°)2.3 mphMostly Cloudy
2:00 PM20.0 °F20.0 °F99 %29.90 in4.0 miSouth (170°)2.2 mphClear
2:20 PM19.4 °F19.4 °F100 %29.89 in5.6 miSSE (160°)2.3 mphMostly Cloudy
2:50 PM21.2 °F21.2 °F100 %29.89 in5.0 miSouth (170°)2.3 mphOvercast
3:20 PM21.2 °F21.2 °F100 %29.89 in4.3 miSSW (210°)4.6 mphOvercast
3:50 PM23.0 °F23.0 °F100 %29.89 in5.6 miSW (220°)4.6 mphOvercast
4:20 PM23.0 °F23.0 °F100 %29.89 in6.2 miSW (220°)4.6 mphOvercast
4:50 PM23.0 °F23.0 °F100 %29.89 in6.2 miSW (220°)5.8 mphOvercast
5:20 PM23.0 °F23.0 °F100 %29.89 in6.2 miSW (220°)4.6 mphOvercast
5:50 PM23.0 °F23.0 °F100 %29.89 in6.2 miSW (220°)3.5 mphOvercast
6:20 PM23.0 °F23.0 °F100 %29.89 in6.2 miSouth (190°)3.5 mphOvercast
6:50 PM21.2 °F21.2 °F100 %29.89 in5.0 miSouth (170°)3.5 mphOvercast
7:20 PM21.2 °F21.2 °F100 %29.86 in5.6 miSouth (190°)3.5 mphOvercast
7:50 PM21.2 °F21.2 °F100 %29.86 in6.2 miSSW (210°)3.5 mphOvercast
8:00 PM22.0 °F22.0 °F100 %29.88 in6.0 miSSW (210°)4.5 mph
8:20 PM21.2 °F21.2 °F100 %29.86 in6.2 miSSW (210°)3.5 mphOvercast
8:50 PM23.0 °F23.0 °F100 %29.86 in6.2 miSSW (210°)4.6 mphOvercast
9:20 PM23.0 °F23.0 °F100 %29.86 in6.2 miSSW (210°)4.6 mphOvercast
9:50 PM23.0 °F23.0 °F100 %29.86 in6.2 miSW (230°)4.6 mphOvercast
10:20 PM23.0 °F23.0 °F100 %29.86 in6.2 miSW (230°)3.5 mphOvercast
10:50 PM23.0 °F23.0 °F100 %29.86 in6.2 miSW (220°)3.5 mphOvercast
11:20 PM23.0 °F23.0 °F100 %29.86 in6.2 miVariable1.2 mphSnowLight Snow
11:50 PM23.0 °F23.0 °F100 %29.86 in6.2 miSSW (210°)3.5 mphSnowLight Snow
Hourly data recorded from EVRA, located miles away from Induli, Latvia







STORIES FROM OUR PARTNERS